Weather Roundup
Issued by NWS Chicago, IL

Home | Current Version | Previous Version | Text Only | Print | Product List | Glossary Off
Versions: 1 2 3 4 5 6 7 8 9 10 11 12 13 14 15 16 17 18 19 20 21 22 23 24 25 26 27 28 29 30 31 32 33 34 35 36 37 38 39 40 41 42 43 44 45 46 47 48 49 50

000
NZUS59 KLOT 270006
HRRLOT

CHICAGO AREA WEATHER ROUNDUP
NATIONAL WEATHER SERVICE CHICAGO/ROMEOVILLE IL
600 PM CST MON JAN 26 2015

NOTE: "FAIR" INDICATES FEW OR NO CLOUDS BELOW 12,000 FEET WITH NO
SIGNIFICANT WEATHER AND/OR OBSTRUCTIONS TO VISIBILITY.

* THESE STATIONS ARE NOT UNDER NWS QUALITY CONTROL. THEY ALSO MAY NOT
  REPORT WEATHER SUCH AS PRECIPITATION OR FOG.

ILZ005-006-012>014-019>023-270100-
NORTHEAST ILLINOIS

CITY           SKY/WX    TMP DP  RH WIND       PRES   REMARKS
OHARE          LGT SNOW  25  23  92 S7        29.89R FOG     WCI  17
6HR MIN TEMP:  25; 6HR MAX TEMP:  26; 6HR PCP: TRACE;

MIDWAY         LGT SNOW  27  22  81 S6        29.90R FOG     WCI  20
6HR MIN TEMP:  27; 6HR MAX TEMP:  29; 6HR PCP: TRACE;

AURORA         CLOUDY    26  23  88 S7        29.89R FOG     WCI  18
6HR MIN TEMP:  25; 6HR MAX TEMP:  26; 6HR PCP: TRACE;

LANSING*       FLURRIES  27  22  84 S6        29.91R WCI  20
JOLIET*        DRIZZLE   26  24  93 S3        29.91R
WAUKEGAN       CLOUDY    25  21  85 S7        29.89R WCI  17
6HR MIN TEMP:  25; 6HR MAX TEMP:  27; 6HR PCP: TRACE;

DUPAGE AIRPORT CLOUDY    25  23  92 SE8       29.88R FOG     WCI  16
6HR MIN TEMP:  25; 6HR MAX TEMP:  26; 6HR PCP: TRACE;

WHEELING       CLOUDY    26  23  88 S6        29.91R WCI  19
6HR MIN TEMP:  25; 6HR MAX TEMP:  27; 6HR PCP: TRACE;

KANKAKEE*      MIX PCPN  27  25  93 S5        29.92R WCI  21
MORRIS*        MIX PCPN  27  27  99 SE6       29.89S WCI  21
LEWIS AIRPORT* MIX PCPN  26  25  99 S8        29.90R WCI  17
NORTHERLY IS     N/A     27  21  78 SW7         N/A  WCI  20
$$

WIZ051-052-058>065-066-070>072-270100-
SOUTHEAST WISCONSIN

CITY           SKY/WX    TMP DP  RH WIND       PRES   REMARKS
MILWAUKEE      LGT SNOW  25  20  81 S5        29.90R WCI  19
6HR MIN TEMP:  25; 6HR MAX TEMP:  28; 6HR PCP:  0.01;

KENOSHA*       CLOUDY    26  21  81 S5        29.89R WCI  20
RACINE*        LGT SNOW  26  21  81 S5        29.91R WCI  20
BURLINGTON     LGT SNOW  23  22  96 SE5       29.87S WCI  17
WAUKESHA       CLOUDY    23  19  86 SE7       29.88R WCI  15
WEST BEND      FLURRIES  25  21  86 SE3       29.87R
$$

INZ001>003-010>013-019-020-270100-
NORTHWEST INDIANA

CITY           SKY/WX    TMP DP  RH WIND       PRES   REMARKS
GARY*          CLOUDY    28  19  69 S3        29.91R
MICHIGAN CITY* NOT AVBL
RENSSELAER*    NOT AVBL
VALPARAISO     CLOUDY    24  16  71 SE5       29.91R WCI  18
$$

LMZ740>746-270100-
SOUTHERN LAKE MICHIGAN

STATION/POSITION TIME  SKY/WX   TEMP WIND        PRES    VSBY
                                AIR  DIR/SP/G
                 (UTC)          (F)  (DEG/KT/KT) (MB)    (MI)
HARRISON CRIB    0000            27  180/ 11/ 12   N/A
BURNHAM HARBOR   0000            27  200/  7/  7   N/A
CALUMET HARBOR   0000            27  160/  6/  9   N/A
BURNS HARBOR     NOT AVBL
MICHIGAN CITY    0000            23  120/  6/  8   N/A
$$

ABBREVIATIONS USED IN REMARKS
   TC - TEMPERATURE IN CELSIUS
  WCI - WIND CHILL INDEX
   HX - HEAT INDEX
  VSB - VISIBILITY
$$


USA.gov is the U.S. government's official web portal to all federal, state and local government web resources and services.